Weather History for EIDW - October, 2013

Change the Weather History Date:

Friday, October 18, 2013

  Actual Average Record
Temperature  
Mean Temperature 51 °F -  
Max Temperature 56 °F 53 °F 66 °F (1997)
Min Temperature 46 °F 42 °F 32 °F (1998)
Degree Days  
Heating Degree Days 14    
Growing Degree Days 1 (Base 50)    
Moisture  
Dew Point 54 °F    
Average Humidity 96    
Maximum Humidity 100    
Minimum Humidity 88    
Precipitation  
Precipitation 0.51 in 0.09 in - ()
Sea Level Pressure  
Sea Level Pressure 29.72 in    
Wind  
Wind Speed 13 mph ()    
Max Wind Speed 27 mph    
Max Gust Speed 38 mph    
Visibility 5.2 miles    
Events Rain    
Averages and records for this station are not official NWS values.
T = Trace of Precipitation, MM = Missing Value Source: Averaged Metar Reports

Daily Weather History Graph

Daily Weather History Graph

Search for Another Location

Airport or City:

Trip Planner

Search our weather history database for the weather conditions in past years. The results will help you decide how hot, cold, wet, or windy it might be!

Date:

Astronomy

Oct. 18, 2013 Rise Set
Actual Time 7:57 AM IST 6:21 PM IST
Civil Twilight 7:22 AM IST 6:57 PM IST
Nautical Twilight 6:41 AM IST 7:37 PM IST
Astronomical Twilight 6:01 AM IST 8:18 PM IST
Moon 6:01 PM IST (10/18) 7:17 AM IST (10/18)
Length of Visible Light 11h 35m
Length of Day
10h 24m
Full, 100% of the Moon is Illuminated
Oct 18
Full
Oct 19
Full
Oct 27
Last Quarter
Nov 3
New
Nov 10
First Quarter

Hourly Weather History & Observations

Time (IST) Temp. Dew Point Humidity Pressure Visibility Wind Dir Wind Speed Gust Speed Precip Events Conditions
12:00 AM 53.6 °F 53.6 °F 100% 29.89 in 6.2 mi SSE 8.1 mph - N/A   Scattered Clouds
12:30 AM 53.6 °F 53.6 °F 100% 29.89 in 6.2 mi SSE 4.6 mph - N/A   Mostly Cloudy
1:00 AM 54 °F 53 °F 95% 29.89 in 16 mi SE 4.5 mph - -   Mostly Cloudy
1:00 AM 53.6 °F 53.6 °F 100% 29.89 in 6.2 mi SE 5.8 mph - N/A   Mostly Cloudy
1:30 AM 53.6 °F 53.6 °F 100% 29.89 in 6.2 mi SE 5.8 mph - N/A   Mostly Cloudy
2:00 AM 53.6 °F 53.6 °F 100% 29.89 in 6.2 mi SE 9.2 mph - N/A   Mostly Cloudy
2:30 AM 53.6 °F 53.6 °F 100% 29.86 in 6.2 mi SE 8.1 mph - N/A   Mostly Cloudy
3:00 AM 53.6 °F 53.6 °F 100% 29.86 in 6.2 mi SE 10.4 mph - N/A   Mostly Cloudy
3:30 AM 55.4 °F 53.6 °F 94% 29.86 in 2.5 mi SE 10.4 mph - N/A   Mostly Cloudy
4:00 AM 55.4 °F 55.4 °F 100% 29.86 in 1.9 mi SE 11.5 mph - N/A   Mostly Cloudy
4:30 AM 55.4 °F 55.4 °F 100% 29.83 in 4.3 mi SE 12.7 mph - N/A   Mostly Cloudy
5:00 AM 55.4 °F 55.4 °F 100% 29.83 in 6.2 mi SE 11.5 mph - N/A   Mostly Cloudy
5:30 AM 55.4 °F 55.4 °F 100% 29.83 in 6.2 mi SSE 10.4 mph - N/A   Mostly Cloudy
6:00 AM 55.4 °F 55.4 °F 100% 29.83 in 5.6 mi SE 12.7 mph - N/A   Mostly Cloudy
6:30 AM 55.4 °F 55.4 °F 100% 29.80 in 3.7 mi SE 12.7 mph - N/A   Mostly Cloudy
7:00 AM 56 °F 55 °F 96% 29.82 in 4 mi SE 13.4 mph - -   Mist
7:00 AM 55.4 °F 55.4 °F 100% 29.80 in 4.3 mi SE 13.8 mph - N/A   Mostly Cloudy
7:30 AM 55.4 °F 55.4 °F 100% 29.80 in 4.3 mi SE 12.7 mph - N/A   Light Drizzle
8:00 AM 57.2 °F 55.4 °F 94% 29.80 in 2.5 mi SE 13.8 mph - N/A Rain Light Rain
8:30 AM 57.2 °F 55.4 °F 94% 29.80 in 3.1 mi SE 18.4 mph - N/A Rain Light Rain
9:00 AM 55.4 °F 55.4 °F 100% 29.80 in 4.3 mi SE 16.1 mph - N/A   Mostly Cloudy
9:30 AM 55.4 °F 55.4 °F 100% 29.80 in 2.8 mi SE 17.3 mph - N/A Rain Light Rain
10:00 AM 57.2 °F 55.4 °F 94% 29.77 in 5.6 mi SE 18.4 mph - N/A   Mostly Cloudy
10:30 AM 57.2 °F 55.4 °F 94% 29.77 in 5.6 mi SE 18.4 mph - N/A   Mostly Cloudy
11:00 AM 57.2 °F 55.4 °F 94% 29.77 in 5.6 mi SE 19.6 mph - N/A   Mostly Cloudy
11:30 AM 55.4 °F 55.4 °F 100% 29.77 in 5.0 mi SE 23.0 mph - N/A Rain Light Rain
12:00 PM 55.4 °F 55.4 °F 100% 29.74 in 3.1 mi SE 23.0 mph - N/A Rain Rain
12:30 PM 55.4 °F 51.8 °F 88% 29.74 in 3.7 mi SE 24.2 mph - N/A Rain Rain
1:00 PM 55 °F 54 °F 93% 29.74 in 3 mi SE 26.8 mph - - Rain Light Rain
1:00 PM 55.4 °F 53.6 °F 94% 29.74 in 3.1 mi SE 26.5 mph - N/A Rain Rain
1:30 PM 51.8 °F 50.0 °F 94% 29.71 in 6.2 mi SE 25.3 mph 38.0 mph N/A Rain Light Rain
2:00 PM 51.8 °F 50.0 °F 94% 29.68 in 6.2 mi SE 26.5 mph - N/A Rain Light Rain
2:30 PM 53.6 °F 51.8 °F 94% 29.65 in 6.2 mi SE 26.5 mph - N/A Rain Light Rain
3:00 PM 53.6 °F 53.6 °F 100% 29.65 in 4.3 mi ESE 23.0 mph - N/A Rain Light Rain
3:30 PM 55.4 °F 53.6 °F 94% 29.65 in 4.3 mi ESE 23.0 mph - N/A Rain Light Rain
4:00 PM 55.4 °F 53.6 °F 94% 29.62 in 5.0 mi SE 24.2 mph - N/A Rain Light Rain
4:30 PM 55.4 °F 53.6 °F 94% 29.62 in 3.1 mi SE 23.0 mph - N/A Rain Light Rain
5:00 PM 55.4 °F 53.6 °F 94% 29.59 in 3.1 mi SSE 21.9 mph - N/A Rain Light Rain
5:30 PM 55.4 °F 53.6 °F 94% 29.59 in 5.0 mi SSE 23.0 mph - N/A Rain Light Rain
6:00 PM 55.4 °F 53.6 °F 94% 29.59 in 6.2 mi SSE 23.0 mph - N/A Rain Light Rain
6:30 PM 55.4 °F 53.6 °F 94% 29.59 in 6.2 mi SSE 25.3 mph - N/A Rain Light Rain
7:00 PM 55 °F 54 °F 95% 29.61 in 7 mi SE 22.4 mph - - Rain Light Rain
7:00 PM 55.4 °F 53.6 °F 94% 29.59 in 6.2 mi SE 21.9 mph - N/A Rain Light Rain
7:30 PM 55.4 °F 53.6 °F 94% 29.59 in 6.2 mi SE 21.9 mph - N/A Rain Light Rain
8:00 PM 53.6 °F 51.8 °F 94% 29.56 in 6.2 mi SE 23.0 mph - N/A Rain Light Rain
8:30 PM 55.4 °F 53.6 °F 94% 29.56 in 6.2 mi SE 21.9 mph - N/A Rain Light Rain
9:00 PM 55.4 °F 53.6 °F 94% 29.56 in 6.2 mi SE 21.9 mph 35.7 mph N/A Rain Light Rain
9:30 PM 55.4 °F 53.6 °F 94% 29.56 in 5.0 mi SSE 18.4 mph - N/A Rain Light Rain
10:00 PM 55.4 °F 53.6 °F 94% 29.53 in 5.0 mi SE 19.6 mph - N/A Rain Light Rain
10:30 PM 55.4 °F 53.6 °F 94% 29.53 in 5.0 mi SE 17.3 mph - N/A   Light Drizzle
11:00 PM 55.4 °F 55.4 °F 100% 29.50 in 4.3 mi SE 15.0 mph - N/A Rain Light Rain
11:30 PM 55.4 °F 55.4 °F 100% 29.47 in 5.6 mi SE 17.3 mph - N/A   Light Drizzle